Regional Weather Roundup
Issued by NWS

Home | Current Version | Previous Version | Graphics & Text | Print | Product List | Glossary On
Versions: 1 2 3 4 5 6 7 8 9 10 11 12 13 14 15 16 17 18 19 20 21 22 23 24 25 26 27 28 29 30 31 32 33 34 35 36 37 38 39 40 41 42 43 44 45 46 47 48 49 50
057
ASUS45 KCYS 271510
RWRWY

WYOMING REGIONAL WEATHER ROUNDUP
NATIONAL WEATHER SERVICE CHEYENNE WY
900 AM MDT SAT MAY 27 2017

NOTE:  "FAIR" INDICATES FEW OR NO CLOUDS BELOW 12,000 FEET
WITH NO SIGNIFICANT WEATHER AND/OR OBSTRUCTIONS TO VISIBILITY.

WYZ001-271600-
YELLOWSTONE NATIONAL PARK

CITY           SKY/WX    TMP DP  RH WIND       PRES   REMARKS
LK YELLOWSTONE   N/A     35  33  92 VRB3      30.27R
W YELLOWSTONE  NOT AVBL

$$
WYZ002>013-054>058-071-098>099-271600-
NORTHERN WYOMING

CITY           SKY/WX    TMP DP  RH WIND       PRES   REMARKS
JACKSON        MOSUNNY   41  36  81 CALM      30.24R
CODY           FAIR      55  33  43 W6        30.16R
GREYBULL       FAIR      50  41  71 CALM      30.14R
WORLAND        FAIR      50  43  77 CALM      30.14R
SHERIDAN       FAIR      60  41  49 NW12      30.09R
BUFFALO        FAIR      57  36  45 NW17G28   30.10R
GILLETTE       FAIR      55  42  61 W9        30.07R
HULETT         FAIR      55  37  50 SW7       30.08R
NEWCASTLE      FAIR      52  41  66 NW13G20   30.08S

$$
WYZ014>020-022>026-101>103-271600-
CENTRAL WYOMING

CITY           SKY/WX    TMP DP  RH WIND       PRES   REMARKS
BIG PINEY      FAIR      47  31  53 NE12      30.22R
PINEDALE       FAIR      43  32  65 W3        30.22R
DUBOIS         FAIR      43  34  70 NW8       30.20R
LANDER         FAIR      50  39  66 VRB3      30.16R
RIVERTON       FAIR      49  38  65 VRB3      30.17R
CASPER         FAIR      50  40  68 CALM      30.13R
DOUGLAS        CLOUDY    47  42  83 W10       30.12R

$$
WYZ021-027>030-104>119-271600-
SOUTHERN WYOMING

CITY           SKY/WX    TMP DP  RH WIND       PRES   REMARKS
EVANSTON       FAIR      41  35  79 N7        30.24R
KEMMERER         N/A     41  32  70 SW6       30.23R
FORT BRIDGER   FAIR      45  34  65 W8        30.26R
ROCK SPRINGS   CLOUDY    43  37  79 CALM      30.21R
DIXON            N/A     45  40  85 NW13      30.21R
RAWLINS        PTSUNNY   43  36  76 NW13      30.19R
SARATOGA       CLOUDY    39  37  93 NW5       30.19R
LARAMIE        LGT RAIN  37  35  92 MISG      30.15R
CHEYENNE       CLOUDY    46  40  79 N9        30.11R
TORRINGTON     FAIR      54  43  66 N13       30.06R
PINE BLUFFS    FAIR      50  43  76 N16       30.09R

$$




USA.gov is the U.S. government's official web portal to all federal, state and local government web resources and services.